Regional Weather Roundup
Issued by NWS Upton, NY

Home | Current Version | Previous Version | Text Only | Print | Product List | Glossary On
Versions: 1 2 3 4 5 6 7 8 9 10 11 12 13 14 15 16 17 18 19 20 21 22 23 24 25 26 27
000
ASUS41 KOKX 230305
RWROKX
REGIONAL WEATHER ROUNDUP
NATIONAL WEATHER SERVICE NEW YORK NY
1100 PM EDT WED OCT 22 2014

NOTE: "FAIR" INDICATES FEW OR NO CLOUDS BELOW 12,000 FEET WITH NO
SIGNIFICANT WEATHER AND/OR OBSTRUCTIONS TO VISIBILITY.

NYZ071-072-176-178-NJZ106-104-230400-
NEW YORK CITY METRO AREA


CITY           SKY/WX    TMP DP  RH WIND       PRES   REMARKS
CENTRAL PARK   HVY RAIN  50  47  89 N13G26    29.77S FOG
LAGUARDIA APRT HVY RAIN  51  47  86 N22G33    29.73F FOG
KENNEDY INTL   RAIN      52  48  86 N22G30    29.72F FOG
NEWARK/LIBERTY RAIN      52  48  86 N23G29    29.75F
BRNX BOT. GARD   N/A     48  46  93 N5        29.73F
TETERBORO      HVY RAIN  52  46  80 N17G28    29.75S
$$

NYZ177-179-078>081-230400-
LONG ISLAND NEW YORK

CITY           SKY/WX    TMP DP  RH WIND       PRES   REMARKS
FARMINGDALE    LGT RAIN  51  47  86 N23G39    29.68F
ISLIP          LGT RAIN  51  47  86 N26G41    29.65F
SHIRLEY        CLOUDY    52  49  89 N16G29    29.68R
WESTHAMPTON    CLOUDY    54  50  86 N24G33    29.67R
MONTAUK POINT    N/A     57  52  83 NE14G25   29.66S
$$

NYZ052-065-067-230400-
HUDSON VALLEY

CITY           SKY/WX    TMP DP  RH WIND       PRES   REMARKS
WHITE PLAINS   RAIN      49  46  90 N20G31    29.74R FOG
NEWBURGH       LGT RAIN  50  48  93 N21G32    29.83F FOG
MONTGOMERY     LGT RAIN  50  46  86 N13G24    29.81F
POUGHKEEPSIE   RAIN      50  46  86 NE13G26   29.84R FOG
ALBANY         LGT RAIN  52  44  74 N17G28    29.93F
$$

NJZ001-105-106-008-010-013-015-019>022-104-230400-
NEW JERSEY

CITY           SKY/WX    TMP DP  RH WIND       PRES   REMARKS
NEWARK/LIBERTY RAIN      52  48  86 N23G29    29.75F
TETERBORO      HVY RAIN  52  46  80 N17G28    29.75S
CALDWELL       LGT RAIN  51 N/A N/A NE10G24   29.78F
MORRISTOWN     RAIN      54  48  82 N13G20    29.78F
SOMERVILLE     LGT RAIN  53  47  79 N12G18    29.77F
SUSSEX         LGT RAIN  53  47  79 N7        29.82F
ANDOVER          N/A     50  47  89 N10G16    29.81F
TRENTON        LGT RAIN  52  48  86 N15G22    29.77F
MILLVILLE      LGT RAIN  52  50  93 NW14G23   29.78F
ATLANTIC CITY  LGT RAIN  52  50  93 NW14G25   29.74F
WRIGHTSTOWN    RAIN      51  51  97 NW16      29.74F
TOMS RIVER     CLOUDY    52  48  87 N8G17     29.74F
BELMAR         CLOUDY    52  45  76 N18G26    29.73F
$$

PAZ047>061-062-071-230400-
EASTERN PENNSYLVANIA

CITY           SKY/WX    TMP DP  RH WIND       PRES   REMARKS
PHILADELPHIA   LGT RAIN  53  48  83 NW17G26   29.80F
ALLENTOWN      CLOUDY    53  45  74 N18G29    29.85F
SCRANTON       LGT RAIN  50  44  80 N16G26    29.93F
$$

CTZ002-004>006-009-010-012-RIZ004-006-007-MAZ004-011-015-230400-
SOUTHERN NEW ENGLAND
 IN CT

CITY           SKY/WX    TMP DP  RH WIND       PRES   REMARKS
BRADLEY INTL   LGT RAIN  50  46  86 N20G30    29.81R
HARTFORD       LGT RAIN  50  46  86 N15G23    29.80F
DANBURY        LGT RAIN  50  44  80 N12G23    29.78S
WTRBRY/OXFORD  CLOUDY    48  41  76 N31G39    29.74F
BRIDGEPORT     CLOUDY    51  47  86 N28G38    29.70F
MERIDEN        LGT RAIN  49  46  90 N17G24    29.80R FOG
NEW HAVEN      CLOUDY    51  47  86 N22G32    29.70F
CHESTER        HVY RAIN  50  46  87 NE13G28   29.75R
GROTON         LGT RAIN  52  50  93 N22G33    29.69F
WILLIMANTIC    CLOUDY    51  46  83 NE22G36   29.76R

 IN RI

CITY           SKY/WX    TMP DP  RH WIND       PRES   REMARKS
PROVIDENCE     HVY RAIN  52  50  93 N18G32    29.74S FOG
BLOCK ISLAND   CLOUDY    57  54  88 NE23G32   29.65R
WESTERLY       LGT RAIN  53  51  93 N17G26    29.70S FOG

 IN MA

CITY           SKY/WX    TMP DP  RH WIND       PRES   REMARKS
BOSTON         RAIN      51  49  92 NE32G48   29.80R FOG
WORCESTER      LGT RAIN  45  44  97 NE22G33   29.83R
WESTFIELD      HVY RAIN  49  46  90 N20G26    29.84S FOG
PROVINCETOWN   CLOUDY    55  54  94 NE28G40   29.74F
NANTUCKET      CLOUDY    60  59  96 NE16G22   29.65F FOG
$$

ANZ330-335-338-340-345-350-353-355-230400-
COASTAL MARINE OBSERVATIONS


STATION/POSITION TIME  SKY/WX   TEMP    WIND        PRES    VSBY  WAVE
                                AIR SEA DIR/SP/G                  HT/PER
                 (UTC)          (F)     (DEG/KT/KT) (MB)    (MI)  (FT/S)
NY HARB ENTRANCE NOT AVBL
4S FIRE IS       0300               63                N/A           8/ 8
20S FIRE ISLAND  0300            55 63   10/ 33/ 39 1002.3         12/ 9
23SW MTP         0300                                 N/A           8/ 8
HUDSON CANYON    0300            62 67   60/ 25/ 31  999.2         13/10
EXECUTION ROCKS  0300            53 63   10/ 21/ 31   N/A
WESTERN LI SOUND 0300            53      10/ 21/ 27   N/A           4/ 4
CENTRAL LI SOUND 0200            54 63   30/ 29/ 37   N/A           4/ 4
EASTERN LI SOUND 0200            56 63   50/ 27/ 41   N/A
ROBBINS REEF     0300            52     360/ 20/ 24 1006.0
$$


>>>>>>>>>>>>>>>>>>>>>>>>>>>> KEY <<<<<<<<<<<<<<<<<<<<<<<<<<<
>                                                          <
>     SKY/WX - SKY CONDITION/PRESENT WEATHER               <
>     TMP    - TEMPERATURE IN FAHRENHEIT                   <
>     DP     - DEWPOINT IN FAHRENHEIT                      <
>     RH     - RELATIVE HUMIDITY IN PERCENT                <
>     WIND   - DIRECTION AND SPEED IN MPH                  <
>     PRES   - MEAN SEA LEVEL PRESSURE IN INCHES OF HG     <
>     WCI    - WIND CHILL INDEX                            <
>     VSB    - VISIBILITY IN MILES                         <
>     HX     - HEAT INDEX                                  <
>     TC     - TEMPERATURE IN CELSIUS                      <
>     VRB    - VARIABLE WIND DIRECTION                     <
>                                                          <
>>>>>>>>>>>>>>>>>>>>>>>>>>>> KEY <<<<<<<<<<<<<<<<<<<<<<<<<<<





USA.gov is the U.S. government's official web portal to all federal, state and local government web resources and services.